TimeCST,TemperatureF,Dew PointF,Humidity,Sea Level PressureIn,VisibilityMPH,Wind Direction,Wind SpeedMPH,Gust SpeedMPH,PrecipitationIn,Events,Conditions,WindDirDegrees,DateUTC
12:51 AM,42.1,37.9,85,30.21,8.0,Calm,Calm,-,N/A,,Clear,0,2013-01-20 06:51:00
1:51 AM,39.0,37.0,93,30.21,6.0,Calm,Calm,-,N/A,,Clear,0,2013-01-20 07:51:00
2:51 AM,35.1,34.0,96,30.20,7.0,Calm,Calm,-,N/A,,Clear,0,2013-01-20 08:51:00
3:51 AM,39.0,37.0,93,30.19,9.0,SSW,8.1,-,N/A,,Clear,210,2013-01-20 09:51:00
4:51 AM,43.0,39.9,89,30.17,8.0,Calm,Calm,-,N/A,,Clear,0,2013-01-20 10:51:00
5:51 AM,37.0,36.0,96,30.18,6.0,SW,4.6,-,N/A,,Clear,230,2013-01-20 11:51:00
6:51 AM,37.9,37.0,97,30.18,4.0,Calm,Calm,-,N/A,,Clear,0,2013-01-20 12:51:00
7:51 AM,35.6,33.8,93,30.20,0.2,Calm,Calm,-,N/A,Fog,Fog,0,2013-01-20 13:51:00
8:09 AM,37.4,35.6,93,30.21,0.8,Calm,Calm,-,N/A,,Clear,0,2013-01-20 14:09:00
8:24 AM,42.8,39.2,87,30.21,1.5,NNW,3.5,-,N/A,,Clear,330,2013-01-20 14:24:00
8:39 AM,44.6,41.0,87,30.22,2.5,Calm,Calm,-,N/A,,Clear,0,2013-01-20 14:39:00
8:49 AM,46.4,42.8,87,30.23,4.0,WNW,4.6,-,N/A,,Clear,290,2013-01-20 14:49:00
8:51 AM,46.0,42.1,86,30.23,4.0,WNW,4.6,-,N/A,,Clear,290,2013-01-20 14:51:00
9:51 AM,51.1,43.0,74,30.23,9.0,South,5.8,-,N/A,,Clear,180,2013-01-20 15:51:00
10:51 AM,57.9,44.1,60,30.23,10.0,South,6.9,-,N/A,,Clear,180,2013-01-20 16:51:00
11:51 AM,63.0,42.1,46,30.20,10.0,South,9.2,-,N/A,,Clear,190,2013-01-20 17:51:00
12:51 PM,68.0,37.9,33,30.15,10.0,SSW,11.5,-,N/A,,Clear,210,2013-01-20 18:51:00
1:51 PM,70.0,39.0,32,30.11,10.0,SSW,10.4,-,N/A,,Clear,210,2013-01-20 19:51:00
2:51 PM,73.4,39.2,29,30.09,10.0,SSW,9.2,-,N/A,,Clear,200,2013-01-20 20:51:00
3:51 PM,72.0,39.9,31,30.07,10.0,South,9.2,-,N/A,,Clear,170,2013-01-20 21:51:00
4:51 PM,71.6,39.2,31,30.07,10.0,South,8.1,-,N/A,,Clear,180,2013-01-20 22:51:00
5:51 PM,57.9,39.0,49,30.07,10.0,South,6.9,-,N/A,,Clear,180,2013-01-20 23:51:00
6:51 PM,57.9,41.0,53,30.09,10.0,SE,4.6,-,N/A,,Clear,140,2013-01-21 00:51:00
7:51 PM,57.0,42.1,57,30.11,10.0,West,4.6,-,N/A,,Clear,270,2013-01-21 01:51:00
8:51 PM,52.0,42.1,69,30.11,10.0,South,8.1,-,N/A,,Clear,190,2013-01-21 02:51:00
9:51 PM,51.1,43.0,74,30.12,10.0,South,9.2,-,N/A,,Clear,170,2013-01-21 03:51:00
10:51 PM,50.0,43.0,77,30.12,10.0,South,8.1,-,N/A,,Clear,180,2013-01-21 04:51:00
11:51 PM,46.9,42.1,83,30.12,10.0,South,8.1,-,N/A,,Clear,180,2013-01-21 05:51:00